Probability
0 0 0 0 0 0 0 0 0 0 0 0 1 1 1 3 2 1 0 1 1 1 1 2 3 2 1 0 0 1 3 3 3 3 3 3 3 3 3 2 1 0 0
0 0 0 0 0 0 0 0 0 1 1 1 1 1 1 2 2 1 1 2 1 1 1 1 1 1 0 0 1 2 3 3 3 3 3 3 3 3 3 2 1 0 0
0 0 0 0 0 0 0 0 0 1 2 2 2 1 1 1 1 1 3 3 1 1 1 1 0 0 1 1 1 2 3 3 3 3 2 1 1 2 3 2 1 0 0
0 0 0 0 0 0 0 0 0 1 2 3 2 1 0 0 0 1 3 3 2 3 2 1 1 1 1 1 1 1 3 3 3 2 1 0 1 2 2 1 0 0 0
0 0 0 0 0 0 0 0 0 1 2 3 2 1 0 0 1 2 2 2 3 4 2 1 0 1 1 1 0 1 2 3 2 1 0 0 0 1 1 0 0 0 0
0 0 0 0 0 0 0 1 1 2 2 2 2 1 0 1 3 3 2 2 3 3 2 1 0 1 2 1 0 1 2 2 1 0 0 0 0 0 0 0 0 0 0
0 0 0 0 0 0 0 1 2 2 2 2 2 1 1 3 4 3 2 3 3 3 2 1 0 1 1 1 0 0 1 1 0 0 0 0 0 0 0 0 0 0 0
0 0 0 0 0 1 1 0 1 3 4 6 6 4 4 5 4 4 3 3 3 3 2 1 0 0 0 0 0 0 0 0 0 0 0 0 0 0 0 0 0 0 0
0 0 0 0 0 1 2 1 2 5 7 9 9 6 5 5 4 5 5 4 3 3 2 1 0 0 0 0 0 0 0 0 0 0 0 0 0 0 0 0 0 0 0
0 0 0 0 0 1 2 2 3 5 7 8 8 5 3 3 3 4 4 3 3 3 2 1 0 0 0 0 0 0 0 0 0 0 0 0 0 0 0 0 0 0 0
0 0 0 0 0 0 1 2 3 4 5 5 4 2 1 1 1 2 2 2 2 1 1 1 0 0 0 0 0 0 0 0 0 0 0 0 0 0 0 0 0 0 0
0 0 0 0 0 0 0 1 1 1 2 2 1 1 0 0 0 0 0 1 1 0 0 0 0 0 0 0 0 0 0 0 0 0 0 0 0 0 0 0 0 0 0
0 0 0 0 0 0 0 0 0 0 0 0 0 0 0 0 0 0 0 0 0 0 0 0 0 0 0 0 0 0 0 0 0 0 0 0 0 0 0 0 0 0 0
0 0 0 0 0 0 0 0 0 0 0 0 0 0 0 0 0 0 0 0 0 0 0 0 0 0 0 0 0 0 0 0 0 0 0 0 0 0 0 0 0 0 0
0 0 0 0 0 0 0 0 0 0 0 0 0 0 0 0 0 0 0 0 0 0 0 0 0 0 0 0 0 0 0 0 0 0 0 0 0 0 0 0 0 1 1
0 0 0 0 0 0 0 0 0 0 0 0 0 0 0 0 0 0 0 0 0 0 0 0 0 0 0 0 0 0 0 0 0 0 0 0 0 1 1 0 1 2 1
0 0 0 0 0 0 0 0 0 0 0 0 0 0 0 0 0 0 0 0 0 0 0 0 0 0 0 0 0 0 0 0 0 0 0 0 0 0 1 1 1 1 1
0 0 0 0 1 1 1 0 0 0 0 0 0 0 0 0 0 0 0 0 0 0 0 0 0 0 0 0 0 0 0 0 0 0 0 0 0 0 0 0 0 0 0
0 0 0 0 1 2 1 0 0 0 0 0 0 0 0 0 0 0 0 0 0 0 0 0 0 0 0 0 0 0 0 0 0 0 0 0 0 0 0 0 0 0 0
0 0 0 0 1 1 1 0 0 0 0 0 0 0 0 0 0 0 0 0 0 0 0 0 0 0 0 0 0 0 0 0 0 0 0 0 0 0 0 0 0 0 1
0 0 0 0 0 0 0 0 0 0 0 0 0 0 0 0 0 0 1 1 0 0 0 0 0 0 0 0 0 0 0 0 0 0 0 0 0 0 0 0 0 0 1
0 0 0 0 0 0 0 0 0 0 0 0 0 0 0 0 0 0 1 2 1 0 0 0 0 0 0 0 0 0 0 0 0 0 0 0 0 0 0 0 0 0 1
0 0 0 0 0 0 0 0 1 1 1 0 0 0 0 0 0 0 1 1 1 0 0 0 1 1 0 0 0 0 0 0 0 0 0 0 0 0 0 0 0 0 0
0 0 0 0 0 0 0 1 2 2 1 0 0 0 0 0 0 0 0 0 0 0 1 1 2 2 1 0 0 0 0 0 0 0 0 0 0 0 0 0 0 0 0
0 1 2 2 2 2 1 1 3 3 2 0 0 0 0 0 0 0 0 0 0 1 2 3 3 3 2 1 1 1 0 0 0 0 0 0 0 0 0 0 0 0 0
1 2 4 4 4 3 2 2 3 3 2 1 0 0 0 0 0 0 0 0 1 2 3 3 3 3 3 2 2 2 1 0 0 0 0 0 0 0 0 0 0 0 0
Wind_Speed
2 2 2 6 8 8 9 10 11 11 12 13 13 13 13 14 14 13 13 13 13 13 14 14 15 15 16 16 16 16 16 15 15 15 15 15 14 13 13 14 13 10 14
1 1 3 6 8 8 9 10 10 11 12 13 13 14 14 14 14 13 13 14 14 14 14 15 15 15 15 15 15 15 14 14 14 14 14 13 14 13 13 13 12 9 14
1 1 3 6 7 8 9 9 10 11 12 12 13 13 14 14 13 13 14 14 14 14 15 15 15 15 15 15 14 14 14 13 13 13 12 8 10 13 13 13 13 13 13
1 1 3 6 7 8 8 9 10 10 11 12 12 12 13 13 13 13 14 14 14 14 14 15 15 15 14 14 13 13 13 12 12 11 6 6 6 12 13 13 13 13 12
2 2 3 7 7 8 8 9 9 10 10 11 11 12 12 12 12 13 13 13 13 13 14 14 14 14 14 13 13 12 12 12 11 8 5 5 5 10 12 12 12 12 11
2 2 3 7 7 8 8 9 9 9 9 10 11 11 12 12 12 12 12 12 13 13 13 14 14 13 13 13 12 11 11 11 9 6 5 6 5 9 11 11 11 11 11
2 2 2 7 8 8 9 8 8 8 9 10 10 11 11 11 11 12 12 12 12 12 13 13 13 13 12 12 11 10 10 9 7 6 6 5 6 9 10 11 11 11 11
3 2 2 6 7 8 8 8 8 8 9 9 10 10 10 11 11 11 12 12 12 11 12 12 12 12 12 11 10 9 9 7 7 6 5 4 7 9 10 10 10 10 10
3 3 3 3 4 6 7 7 8 8 8 8 9 9 9 10 10 11 11 11 10 11 11 11 11 11 10 9 9 8 7 7 6 4 5 4 7 9 10 10 10 9 9
3 3 3 3 3 3 3 5 7 7 7 7 8 8 8 8 8 9 9 9 9 9 9 9 9 9 8 8 7 7 7 6 5 4 3 4 7 9 9 9 9 9 9
2 1 2 2 2 2 2 3 4 5 5 5 5 6 6 4 4 5 6 7 8 7 7 7 7 6 6 6 6 6 5 3 3 2 2 5 7 8 8 9 9 9 8
1 1 1 1 1 1 2 3 3 3 4 3 3 3 3 3 3 4 5 5 6 6 5 5 5 4 4 3 3 4 2 3 2 2 2 5 6 7 8 8 9 9 8
2 1 1 1 1 1 1 2 1 2 2 2 3 2 2 2 2 2 2 2 3 3 3 3 3 2 3 2 2 2 2 2 1 1 2 5 6 7 8 9 9 9 9
2 2 1 2 1 1 1 1 1 1 1 1 1 1 1 1 1 1 1 1 1 2 2 2 2 2 2 2 2 2 2 1 1 1 2 4 5 6 8 9 10 10 10
3 2 2 2 2 2 1 1 1 1 1 1 0 0 1 1 1 1 1 1 1 1 1 1 1 2 1 2 1 2 1 1 1 1 1 3 3 4 6 7 9 9 9
4 4 3 3 3 2 2 1 1 1 1 1 0 0 1 1 1 1 1 1 1 1 1 1 1 1 1 1 2 2 1 1 1 1 1 1 1 1 2 4 6 6 7
5 4 4 4 3 3 2 2 1 1 1 1 0 1 1 1 1 1 1 1 0 1 2 1 2 2 2 2 2 2 1 1 1 1 1 1 0 0 0 1 2 3 5
5 5 4 4 4 3 3 2 1 1 1 0 0 1 1 1 2 1 1 1 1 1 2 2 2 2 2 2 2 2 2 1 1 1 1 1 1 1 1 2 1 1 2
5 5 5 4 4 4 3 2 2 1 1 0 1 1 0 1 2 2 1 1 1 2 2 2 2 2 2 2 2 2 2 2 2 2 2 2 2 2 2 2 3 3 2
4 4 5 4 4 4 3 2 2 2 1 1 1 0 0 1 2 2 1 1 2 2 2 2 3 2 2 2 3 4 3 3 3 3 2 2 2 2 2 3 2 3 4
4 4 4 4 4 3 2 2 2 1 0 1 1 0 1 1 2 2 2 2 2 2 2 3 3 3 2 2 3 3 3 4 4 3 3 3 3 3 3 3 2 2 2
6 5 5 5 5 4 2 2 2 2 1 0 1 1 1 1 1 2 2 2 2 2 2 3 3 2 1 1 2 2 1 2 4 4 3 3 3 3 3 3 3 3 3
7 7 7 6 5 4 4 2 2 2 2 1 1 1 1 1 1 2 2 2 2 2 2 2 3 3 2 1 1 2 2 2 1 2 4 3 3 3 3 3 4 4 3
8 7 6 6 5 4 4 4 4 3 2 1 1 0 1 1 1 2 2 2 2 2 2 2 2 2 3 2 1 1 1 3 3 1 2 2 3 4 4 3 3 4 4
8 7 6 6 5 4 4 5 4 3 2 1 1 1 1 2 1 1 2 2 1 1 1 1 1 2 2 2 2 1 2 1 2 2 1 1 2 3 3 3 2 3 3
7 7 6 6 5 5 5 5 5 5 4 3 2 2 1 1 1 1 1 1 1 1 1 1 1 2 2 2 2 2 2 2 2 2 2 2 1 1 2 2 2 2 3
Wind_Direction
306 313 43 74 81 80 82 83 80 84 84 91 94 99 102 103 104 105 109 110 108 107 109 114 114 115 117 117 118 118 118 119 121 124 125 126 127 126 124 124 122 122 125
242 306 88 84 86 86 86 84 82 84 85 91 93 97 101 102 103 104 108 109 109 108 108 111 113 115 116 116 116 117 118 120 123 125 127 129 130 129 128 127 125 125 127
52 30 93 95 92 90 89 86 86 87 86 93 96 99 102 103 103 104 109 110 110 108 109 110 113 113 115 116 117 117 119 120 120 122 121 120 128 131 130 130 128 127 126
80 53 101 106 98 95 94 89 88 88 89 94 98 101 105 105 104 104 107 108 109 108 109 110 112 113 114 115 116 117 118 118 118 118 111 117 127 132 132 130 131 130 129
62 76 114 112 105 98 95 91 88 88 90 96 100 102 105 107 106 105 106 107 107 108 110 110 112 113 114 115 115 117 118 116 116 109 109 110 114 135 135 133 133 133 133
67 70 114 118 113 104 97 93 91 91 93 99 103 102 103 105 107 107 108 109 108 108 110 109 110 111 113 114 116 118 118 118 111 105 115 121 125 138 138 136 134 132 132
91 68 95 114 110 107 103 97 94 94 102 102 103 102 102 103 107 108 108 109 108 108 110 110 107 108 110 112 112 114 114 114 107 105 114 126 134 139 140 137 136 136 137
98 77 75 108 109 105 102 99 93 99 106 101 102 103 102 103 105 106 105 107 107 108 109 110 107 105 104 103 104 106 110 112 112 112 114 127 140 143 144 146 147 147 147
79 71 56 58 88 102 102 99 94 99 99 97 95 98 100 102 105 105 102 106 108 106 107 109 108 106 104 104 105 106 110 113 111 120 132 135 148 152 153 155 156 156 155
72 62 60 53 54 56 68 91 92 96 99 93 91 93 93 98 102 105 104 108 110 108 108 109 108 107 105 103 106 107 107 106 107 118 126 142 155 160 162 164 164 165 164
99 60 63 73 65 60 63 82 81 81 81 80 75 78 76 64 73 89 102 109 110 110 109 108 105 104 102 97 99 101 97 101 111 121 134 153 165 170 172 173 172 173 174
188 179 103 100 91 69 72 64 44 47 46 47 47 49 57 60 68 83 86 97 101 102 104 102 95 91 87 83 84 88 93 111 122 139 153 165 175 182 182 182 183 185 185
193 177 161 161 114 99 68 75 62 51 47 41 37 38 50 52 54 54 56 52 57 65 65 66 61 69 82 87 84 92 108 123 139 151 160 176 185 189 191 192 195 197 197
166 193 174 162 138 134 110 89 101 86 73 61 28 31 68 59 57 61 61 49 54 60 58 59 67 60 70 80 97 105 111 135 142 149 166 180 187 195 201 202 202 205 203
177 198 188 162 162 158 140 132 114 121 139 144 95 23 107 106 91 89 77 75 82 92 86 76 78 74 64 64 80 104 118 129 140 144 161 179 187 204 206 208 209 212 211
182 186 177 166 170 155 148 143 126 124 136 117 135 162 138 135 135 119 104 96 98 118 116 105 103 88 72 75 70 84 102 95 125 140 153 197 208 206 214 215 219 214 216
180 172 168 168 158 149 148 143 117 115 127 122 144 135 129 132 146 136 127 120 126 114 113 100 84 85 88 79 66 67 77 93 123 132 122 101 21 313 253 187 226 225 225
170 166 173 166 150 149 143 134 117 108 106 82 41 81 121 138 149 138 130 144 146 121 112 109 103 93 83 80 63 42 51 60 71 80 84 74 55 14 28 39 8 314 253
173 166 162 154 150 149 135 119 104 91 78 49 26 25 74 131 139 132 132 131 121 108 108 123 113 120 109 93 76 57 47 44 45 56 74 74 65 48 34 24 15 14 348
169 163 156 149 144 131 114 98 84 70 55 42 30 6 87 112 122 122 122 111 117 114 108 114 115 106 107 102 79 61 46 45 50 54 62 69 64 56 46 35 19 1 11
164 167 167 160 156 140 124 124 118 118 45 20 1 22 103 110 116 120 122 112 121 128 134 130 119 106 96 104 90 67 48 48 53 45 49 60 59 56 60 52 41 26 9
179 179 180 180 169 167 155 145 142 135 129 104 17 39 91 116 127 141 134 128 125 122 122 128 129 120 123 120 116 110 73 41 40 41 44 52 52 53 54 52 48 40 28
187 187 188 188 178 174 159 122 99 73 48 47 36 17 15 97 119 120 123 123 122 133 152 160 154 151 160 159 140 143 148 165 84 39 40 45 46 48 44 47 47 38 31
196 185 183 181 176 172 157 151 154 158 173 201 173 95 20 52 89 111 118 122 130 142 163 186 170 164 160 173 150 107 142 150 147 123 43 40 45 47 40 38 36 34 29
188 178 180 172 174 171 163 165 163 170 178 152 120 99 60 42 59 91 115 125 133 147 165 170 158 163 169 173 168 149 119 96 122 142 144 81 51 47 47 42 41 34 28
177 172 172 169 178 174 171 173 177 179 173 160 158 150 110 49 33 51 115 128 146 161 178 183 171 169 180 173 173 169 166 162 160 145 148 151 115 62 50 42 40 36 33